Regional Weather Roundup
Issued by NWS Wakefield, VA

Home | Current Version | Previous Version | Graphics & Text | Print | Product List | Glossary On
Versions: 1 2 3 4 5 6 7 8 9 10 11 12 13 14 15 16 17 18 19 20 21 22 23 24 25 26 27 28 29 30 31 32 33 34 35 36 37 38 39 40 41 42 43 44 45 46 47 48 49 50
000
ASUS41 KAKQ 110014
RWRAKQ

REGIONAL WEATHER ROUNDUP
NATIONAL WEATHER SERVICE WAKEFIELD VA
700 PM EST WED FEB 10 2016

Note: "fair" indicates few or no clouds below 12,000 feet with no
significant weather and/or obstructions to visibility. * = Denotes
station may not report precipitation (e.g., rain,snow,etc.),
thunder or fog.

VAZ042-051-052>054-056-110100-
NORTHERN VIRGINIA

CITY           SKY/WX    TMP DP  RH WIND       PRES   REMARKS
WASH NATIONAL  CLOUDY    29  10  45 W15G25    29.90R WCI  18
DULLES         CLOUDY    26   9  48 NW16G30   29.90R WCI  14
FORT BELVOIR   CLOUDY    28  11  48 NW16G30   29.90R WCI  17
QUANTICO       CLOUDY    29  17  61 NW15G28   29.93R WCI  18
FREDERICKSBRG* CLOUDY    30  17  56 NW15G21   29.90R WCI  19
STAFFORD*      CLOUDY    26  20  79 NW12      29.95R WCI  16
WARRENTON      CLOUDY    28  15  58 W15G21    29.91R WCI  17
CULPEPER*      CLOUDY    27   9  47 NW7G16    29.93R
MANASSAS*      NOT AVBL
LEESBURG*      CLOUDY    28  18  64 NW16G25   29.91R WCI  17
WINCHESTER     CLOUDY    25  12  58 W13       29.89R WCI  13
FRONT ROYAL*   CLOUDY    25   9  50 W7        29.89R
LURAY*         FAIR      23   7  50 W10G17    29.89R WCI  12
$$

VAZ048-049-060>072-079>083-110100-
CENTRAL AND SOUTH CENTRAL VIRGINIA

CITY           SKY/WX    TMP DP  RH WIND       PRES   REMARKS
RICHMOND       CLOUDY    33  10  38 W20G26    29.89R WCI  21
CHESTERFIELD*  FAIR      32   3  29 W16G23    29.91R WCI  21
PETERSBURG*    FAIR      32   4  30 W9        29.92R
HANOVER        CLOUDY    33  10  38 W13G25    29.90R WCI  24
TAPPAHANNOCK*  CLOUDY    36  13  39 W14G22    29.87R
QUINTON*       CLOUDY    34  12  41 W7G21     29.88R
CHARLOTTSVILLE FAIR      27   4  37 NW9       29.90R
GORDONSVILLE*  CLOUDY    28   6  39 NW6G18    29.90R
ORANGE*        CLOUDY    28  10  47 W10G16    29.93R WCI  19
LOUISA*        CLOUDY    28   9  43 NW9G24    29.89R
BUMPASS*       CLOUDY    31   8  39 W7        29.89R
FARMVILLE*     FAIR      29   5  35 W5        29.92R
CREWE*         MOCLDY    28   8  41 W10G18    29.92R WCI  19
FORT PICKETT*  FAIR      28   7  42 W15G24    29.92R WCI  16
CHASE CITY*    FAIR      28   5  37 W8        29.94R
CLARKSVILLE*   FAIR      30   9  40 NW7G18    29.95R
SOUTH HILL*    FAIR      29  10  43 W6        29.99R
LAWRENCEVILLE* FAIR      30  10  42 NW7G17    29.93R
EMPORIA*       CLOUDY    32  12  43 W10G18    29.94R WCI  24
$$

VAZ088>098-110100-
SOUTHEAST VIRGINIA

CITY           SKY/WX    TMP DP  RH WIND       PRES   REMARKS
NORFOLK        FAIR      38  14  37 W7        29.86R
VIRGINIA BEACH MOCLDY    42  15  33 W14       29.86R
NORFOLK NAVAL  MOCLDY    39  16  39 W14       29.88R
WEST POINT*    CLOUDY    36  14  41 W17G25    29.89R
SALUDA*        CLOUDY    37  15  40 W16G22    29.85R
NEWPORT NEWS   CLOUDY    37  16  42 W15G23    29.87R
LANGLEY AFB    CLOUDY    38  17  42 W14       29.85R
FORT EUSTIS    CLOUDY    37  15  40 NW18G24   29.85R
WILLIAMSBURG*  CLOUDY    39  16  38 W17G23    29.88R
HR EXEC AP*    MOCLDY    37  16  41 W9        29.89R
FRANKLIN*      CLOUDY    37  16  42 W12G17    29.90R
US460-WAKEFLD  CLOUDY    36  12  37 W9G23     29.90R
$$

VAZ020-022-025-037-045-110100-
WEST CENTRAL AND SOUTHWEST VIRGINIA

CITY           SKY/WX    TMP DP  RH WIND       PRES   REMARKS
STAUNTON*      FAIR      26   6  42 NW9       29.91R
WAYNESBORO*    FAIR      21   0  39 W6        29.87R
HOT SPRINGS VA CLOUDY    10   4  77 W20G29    29.69S WCI  -8
LYNCHBURG      FAIR      23   6  48 W6        29.95R
DANVILLE       FAIR      27   8  44 NW7       29.98R
SOUTH BOSTON*  FAIR      28   5  36 NW9G20    29.97R
MARTINSVILLE   MOCLDY    24   5  45 NW14G20   30.00R WCI  11
ROANOKE        MOCLDY    22   4  46 NW17G26   29.97R WCI   8
BLACKSBURG     CLOUDY    18   9  68 W13       29.92R WCI   5
DUBLIN*        CLOUDY    20   8  60 W20       29.92R WCI   4
MARION*        CLOUDY    18   8  66 W17G28    29.90R WCI   3
HILLSVILLE*    CLOUDY    16   8  70 W12G17    29.85R WCI   3
RICHLANDS*     FLURRIES  14   6  69 W13G21    29.91R WCI   0
WISE*          FAIR      14   1  57 W8G17     29.95R
ABINGDON*      FAIR      20   5  54 NW6       29.96R
$$

MDZ021>025-VAZ099-100-110100-
SOUTHERN MARYLAND AND THE DELMARVA PENINSULA

CITY           SKY/WX    TMP DP  RH WIND       PRES   REMARKS
PATUXENT RIVER FLURRIES  36  18  48 NW14G22   29.84R
BAY BRIDGE APT   N/A     32  12  43 NW18G24   29.85R WCI  20
LEONARDTOWN    CLOUDY    32  23  69 NW15G23   29.87R WCI  22
DOVER          CLEAR     32  18  55 W12       29.80R WCI  23
GEORGETOWN     MOCLDY    34  18  52 NW3       29.83R
EASTON         PTCLDY    32  18  55 NW12      29.87R WCI  23
CAMBRIDGE      PTCLDY    34  19  55 NW8       29.83R
SALISBURY      CLOUDY    33  22  63 NW5       29.82R
OCEAN CITY     CLEAR     31  22  69 CALM      29.83R
WALLOPS ISLAND CLOUDY    33  23  66 S3        29.84R
ACCOMACK*      CLOUDY    32  25  74 CALM      29.83S
$$

NCZ012>017-030>032-110100-
NORTH CENTRAL AND EASTERN NORTH CAROLINA

CITY           SKY/WX    TMP DP  RH WIND       PRES   REMARKS
ROANOKE RAPIDS FAIR      34  16  47 W9G16     29.93R
RALEIGH        PTCLDY    32   8  36 NW9G17    29.96R
ELIZABETH CITY CLOUDY    38  20  48 W12       29.90R
AHOSKIE*       CLOUDY    36  16  44 W3        29.91R
EDENTON*       CLOUDY    40  20  43 W10       29.92R
CURRITUCK*     CLOUDY    39  21  48 W9        29.89R
KILL DEVIL HLS CLOUDY    38  19  46 W9G18     29.87R
MANTEO         CLOUDY    38  20  48 W9G18     29.90R
CAPE HATTERAS  CLOUDY    40  21  46 NW13G22   29.91R
TARBORO*       CLOUDY    37  18  45 W9        29.94R
GOLDSBORO      PTCLDY    36  16  44 W16       29.94R
WASHINGTON     CLOUDY    37  18  46 W7        29.93R
GREENVILLE     CLOUDY    37  19  48 W9        29.95S
NEW BERN       CLOUDY    38  19  46 W12       29.96R
WILMINGTON     PTCLDY    37  16  42 W16       30.01R
$$

VAZ048-110100-
ELSEWHERE

CITY           SKY/WX    TMP DP  RH WIND       PRES   REMARKS
HARRISBURG PA  CLOUDY    29  14  53 W21G28    29.83R WCI  16
BALTIMORE      MOCLDY    29  11  47 W18G30    29.85R WCI  16
ANNAPOLIS      CLOUDY    32  14  47 W8        29.86R
ANDREWS AFB    CLOUDY    28  10  46 NW20      29.87R WCI  15
PHILADELPHIA   CLOUDY    33  15  47 W20       29.82R WCI  21
HENDERSON NC   CLEAR     29   8  40 W5        29.95R
GREENSBORO     PTCLDY    27   5  39 W14       29.96R WCI  16
ROCKY MOUNT    CLOUDY    36  16  44 W8        29.94R
$$

VAZ100-110100-
MARINE

STATION/POSITION TIME  TEMP    WIND        PRES    WAVE   SWELL
                       AIR SEA DIR/SP/G            HT/PER HT/PER
                 (UTC) (F)     (DEG/KT/KT) (MB)    (FT/S) (FT/S)
BRANDYWINE LGT   2300   34                 1009.2
CAPE MAY NJ      2300   35 41              1009.0
LEWES DE         2300   35 41              1009.4
15NM E FENWICK I 2350   37 43              1009.5R   4/12
OCEAN-CITY-INLET 2300   36 41              1008.8
WACHAPREAGUE VA  2300   36 44              1009.9
GOOSES REEF MD   2300   36 39  330/ 10/ 12 1010.7R   1/ 2
COVE POINT MD    2300   36                 1010.2
SOLOMONS ISLAND  2300   37 41                N/A
BISHOPS HEAD MD  2318   38 40              1008.9
PINEY POINT MD   2300          320/  6/  7   N/A
POTOMAC MD       2300   38 40  310/  8/ 10 1008.6R   1/ 2
CAMBRIDGE MD     2300   36 40              1008.9
LEWISETTA VA     2300   38 41              1009.5
RAPPAHANNOCK LGT 2300                      1009.9
STINGRAY PT      2300   39 42  280/ 10/ 12 1009.8R   1
YORK RVR RNG VA  2300   40                 1009.1
YORKTOWN VA      2300   40 43              1010.0
JAMESTOWN VA     2300   38 44  270/ 16/ 21   N/A     1
DOMINION TERM VA 2300   40                 1010.3
KIPTOPEKE VA     2300      43                N/A
CHES BAY BRIDGE  2300   40 42              1009.8
CAPE HENRY VA    2300   39                   N/A
CHESAPEAKE LGHT  2300   40     260/ 20/ 23 1010.8R
WILLOUBY STN VA  2300   40                 1010.6
1ST LANDING BUOY 2300      42                N/A     2/ 3
64NM E OF VA BCH 2350   41 49  250/ 14/ 17 1010.4R   5/13   3/13
DUCK PIER NC     2300   40                 1010.8
44100 DUCK FRF   2354      47                N/A     4/13   3/13
44056 DUCK FRF   2311      44                N/A     3/13   2/13
OREGON INLET NC  2300   39 43              1011.7
HATTERAS NC      2300   41 49              1011.8
DIAMOND SHLS NC  2350   44 72  300/ 19/ 27 1012.3R   5/14   3/14
$$



USA.gov is the U.S. government's official web portal to all federal, state and local government web resources and services.